Regional Weather Roundup
Issued by NWS

Home | Current Version | Previous Version | Text Only | Print | Product List | Glossary Off
Versions: 1 2 3 4 5 6 7 8 9 10 11 12 13 14 15 16 17 18 19 20 21 22 23 24 25 26 27 28 29 30 31 32 33 34 35 36 37 38 39 40 41 42 43 44 45 46 47 48 49 50

000
ASUS43 KMKX 200711
RWRWI

WISCONSIN REGIONAL WEATHER ROUNDUP
NATIONAL WEATHER SERVICE MILWAUKEE/SULLIVAN WI
200 AM CDT SAT SEP 20 2014

NOTE: "FAIR" INDICATES FEW OR NO CLOUDS BELOW 12,000 FEET WITH NO
SIGNIFICANT WEATHER AND/OR OBSTRUCTIONS TO VISIBILITY.

WIZ001-002-006>008-014>016-023>028-200800-
NORTHWEST WISCONSIN

CITY           SKY/WX    TMP DP  RH WIND       PRES   REMARKS
SUPERIOR ARPT  FOG       57  57 100 CALM      29.60F VSB 1/4
ASHLAND        PTCLDY    66  62  87 SW7       29.61F
HAYWARD        CLEAR     66  64  93 SW8       29.66F
SIREN          PTCLDY    65  64  96 S6        29.65S
RICE LAKE      CLOUDY    67  64  90 SW8       29.70R
LADYSMITH      CLOUDY    66  63  90 S7        29.70F
EAU CLAIRE     CLOUDY    69  64  84 SW12      29.71R
MENOMONIE      CLOUDY    70  65  84 S12       29.70R
NEW RICHMOND   CLOUDY    69  67  94 SW10G16   29.68S
OSCEOLA        CLOUDY    69  69  99 S5        29.69S
$$

WIZ003>005-009-010-017-018-200800-
NORTH CENTRAL WISCONSIN

CITY           SKY/WX    TMP DP  RH WIND       PRES   REMARKS
WOODRUFF       CLOUDY    64  60  85 SW8       29.69F
RHINELANDER    CLOUDY    62  57  83 SW13G22   29.70F
EAGLE RIVER    CLOUDY    63  56  77 SW8       29.68F
LAND O LAKES   CLOUDY    64  58  80 SW6       29.69F
PHILLIPS       CLOUDY    64  61  88 SW10      29.68F
TOMAHAWK       CLOUDY    63  58  83 SW5       29.71F
MEDFORD        CLOUDY    63  60  90 SW10G16   29.71F
MERRILL        CLOUDY    63  58  85 SW6       29.71F
$$

WIZ029-030-035-036-043>047-200800-
CENTRAL WISCONSIN

CITY           SKY/WX    TMP DP  RH WIND       PRES   REMARKS
WAUSAU         MOCLDY    64  57  78 SW10      29.70F
MOSINEE        CLOUDY    63  59  88 S12G17    29.74F
MARSHFIELD     LGT RAIN  65  59  81 SW10      29.72F
STEVENS POINT  CLOUDY    63  56  78 S10       29.74F
WAUPACA        CLOUDY    64  58  81 SW9G16    29.74F
WAUTOMA        CLOUDY    66  56  70 W8        29.79S
WISC RAPIDS    CLOUDY    64  59  83 SW12      29.77S
CAMP DOUGLAS   TSTM      64  64 100 S15       29.77F
$$

WIZ011>013-019>022-031-037>040-048>050-200800-
NORTHEAST WISCONSIN

CITY           SKY/WX    TMP DP  RH WIND       PRES   REMARKS
ANTIGO         CLOUDY    61  56  84 SW13      29.72F
STURGEON BAY   CLOUDY    61  52  72 S12       29.76R
GREEN BAY      CLOUDY    65  55  70 SW13G22   29.75F
MANITOWOC      MOCLDY    60  52  74 S8        29.79F
APPLETON       MOCLDY    63  52  67 SW16      29.76F
CLINTONVILLE   CLOUDY    63  54  72 SW9       29.73F
OSHKOSH        MOCLDY    65  55  70 SW15G22   29.76F
$$

WIZ032>034-041-042-053>061-200800-
SOUTHWEST WISCONSIN

CITY           SKY/WX    TMP DP  RH WIND       PRES   REMARKS
LA CROSSE      RAIN      67  64  90 VRB5      29.77R FOG
SPARTA         RAIN      65  63  94 SW6       29.77F
VIROQUA        CLOUDY    64  64 100 SW8       29.83R
BOSCOBEL       CLOUDY    69  59  70 SW13G22   29.81F
PRAIRIE DU CHI CLOUDY    69  59  72 S10       29.82R
PLATTEVILLE    FAIR      65  59  80 S14G20    29.87S
$$

WIZ056-057-062-063-064-067-068-200800-
SOUTH CENTRAL WISCONSIN

CITY           SKY/WX    TMP DP  RH WIND       PRES   REMARKS
BARABOO/DELLS  CLOUDY    66  55  68 SW21G26   29.78F
LONE ROCK      CLOUDY    70  57  63 SW14G24   29.82F
WATERTOWN      PTCLDY    64  55  74 S14       29.82F
MADISON        MOCLDY    66  55  67 S10G21    29.82F
MIDDLETON      FAIR      66  55  66 SW14      29.82F
MONROE         MOCLDY    63  55  77 S16       29.86F
JANESVILLE     PTCLDY    63  52  67 S12       29.88F
$$

WIZ051-052-058>065-066-070>072-200800-
SOUTHEAST WISCONSIN

CITY           SKY/WX    TMP DP  RH WIND       PRES   REMARKS
MILWAUKEE      PTCLDY    65  50  58 SW17      29.85F
WAUKESHA       CLEAR     61  50  67 SW10G20   29.86F
MILWAUKEE/TIMM CLEAR     63  50  63 SW8G17    29.85F
RACINE         CLEAR     65  50  58 SW13      29.89S
BURLINGTON     CLEAR     60  51  72 SW12G17   29.87F
KENOSHA        CLEAR     65  52  62 SW13G23   29.90R
FOND DU LAC    PTCLDY    65  53  65 SW17G25   29.78F
SHEBOYGAN      PTCLDY    63  52  67 SW13G18   29.80F
WEST BEND      PTCLDY    64  50  59 SW20G28   29.81F
JUNEAU         PTCLDY    63  55  74 S14       29.83F
$$

LSZ147-162-200800-
LAKE SUPERIOR

STATION/POSITION TIME  TEMP    WIND        PRES    WAVE
                       AIR SEA DIR/SP/G            HT/PER
                 (UTC) (F)     (DEG/KT/KT) (MB)    (FT/S)
W MID LAKE BUOY  0650   55 48  210/  6/  8 1002.4R   1
DEVILS ISLAND    0700   61     220/ 13/ 15 1002.5S
PORT WING        0640   65     160/  3/  5 1003.0S
SAXON HARBOR     0600   69     190/  6/ 10 1003.4R
$$

LMZ867-665-643>646-200800-
LAKE MICHIGAN

STATION/POSITION TIME  TEMP    WIND        PRES    WAVE
                       AIR SEA DIR/SP/G            HT/PER
                 (UTC) (F)     (DEG/KT/KT) (MB)    (FT/S)
N MID LAKE BUOY  0650   61 58  210/ 23/ 29 1006.6F   8/ 7
NORTHPORT PIER   0600   61     160/  8/ 13 1007.1F
KEWAUNEE LAKESHO 0600   58     180/ 13/ 15 1007.9F
SHEBOYGAN LAKESH 0700   60 55  180/ 15/ 16 1009.2F
PORT WASHINGTON  0600   64     210/  7/ 10 1011.2F
ATWATER BUOY     0700   64     200/ 14/ 17 1011.9F
MILWAUKEE LAKESH 0600   65     220/ 12/ 14   N/A
S MID LAKE BUOY  0650   65 64  200/ 21/ 25 1012.3R   4/ 5
KENOSHA   LAKESH 0700   66     210/ 11/ 17 1011.9S
$$

TC  - TEMPERATURE IN CELSIUS
VSB - VISIBILITY IN STATUTE MILES
WCI - WIND CHILL INDEX
HX  - HEAT INDEX



USA.gov is the U.S. government's official web portal to all federal, state and local government web resources and services.